Lacey, Washington, United States (98503)
Lat: 47.03N, Lon: 122.82W
Wx Zone: WAZ504
Local Info
Past Weather Observations for Today

NOTE: This archive is for the closest National Weather Service station to Lacey. Information may differ from the station used for current weather conditions.

Click here for Long-term Archive

Time Weather Temperature Dewpoint Humidity Pressure Winds Precip Visibility
10:54
Partly Cloudy
64°F / 18°C 55°F / 13°C 73% 30.06 in
(1018 mb)
NE 11.5 mph
(NE 19 kph)
- 10SM
10:32
Mostly Cloudy
63°F / 17°C 55°F / 13°C 77% 30.06 in
(1018 mb)
NE 10.4 mph
(NE 17 kph)
- 10SM
09:54
Overcast
61°F / 16°C 55°F / 13°C 83% 30.09 in
(1019 mb)
NE 12.7 mph
(NE 20 kph)
- 10SM
08:54
Overcast
Fog And Mist
59°F / 15°C 55°F / 13°C 88% 30.09 in
(1019 mb)
NE 11.5 mph
(NE 19 kph)
- 5SM
07:54
Overcast
Fog And Mist
57°F / 14°C 55°F / 13°C 94% 30.09 in
(1019 mb)
ENE 6.9 mph
(ENE 11 kph)
- 3SM
07:19
Overcast
55°F / 13°C 55°F / 13°C 100% 30.09 in
(1019 mb)
NE 6.9 mph
(NE 11 kph)
- 9SM
07:02
Partly Cloudy
54°F / 12°C 54°F / 12°C 100% 30.09 in
(1019 mb)
N 4.6 mph
(N 7 kph)
- 8SM
06:54
Clear
54°F / 12°C 54°F / 12°C 100% 30.09 in
(1019 mb)
NNE 4.6 mph
(NNE 7 kph)
- 8SM
06:25
Clear
54°F / 12°C 54°F / 12°C 100% 30.09 in
(1019 mb)
NNE 4.6 mph
(NNE 7 kph)
- 9SM
06:16
Clear
Fog And Mist
52°F / 11°C 52°F / 11°C 100% 30.09 in
(1019 mb)
NE 4.6 mph
(NE 7 kph)
- 2SM
06:09
Partly Cloudy
Fog And Mist
50°F / 10°C 48°F / 9°C 94% 30.09 in
(1019 mb)
NE 4.6 mph
(NE 7 kph)
- 1 1/4SM
06:03
Partly Cloudy
Fog And Mist
48°F / 9°C 46°F / 8°C 94% 30.09 in
(1019 mb)
N 4.6 mph
(N 7 kph)
- 2SM
06:01
Obscured
Fog And Mist
48°F / 9°C 48°F / 9°C 100% 30.09 in
(1019 mb)
NNE 4.6 mph
(NNE 7 kph)
- 1SM
05:54
Obscured
Fog
46°F / 8°C 46°F / 8°C 100% 30.09 in
(1019 mb)
NE 3.5 mph
(NE 6 kph)
- 1/4SM
05:45
Obscured
Fog
48°F / 9°C 48°F / 9°C 100% 30.09 in
(1019 mb)
NNE 3.5 mph
(NNE 6 kph)
- 1/4SM
05:39
Obscured
Fog And Mist
48°F / 9°C 46°F / 8°C 94% 30.09 in
(1019 mb)
NNE 3.5 mph
(NNE 6 kph)
- 1SM
05:36
Partly Cloudy
Fog And Mist
46°F / 8°C 46°F / 8°C 100% 30.09 in
(1019 mb)
NNE 3.5 mph
(NNE 6 kph)
- 1 3/4SM
04:54
Partly Cloudy
Fog And Mist
50°F / 10°C 48°F / 9°C 94% 30.09 in
(1019 mb)
Calm - 3SM
04:39
Partly Cloudy
Fog And Mist
48°F / 9°C 48°F / 9°C 100% 30.09 in
(1019 mb)
Calm - 2 1/2SM
04:37
Partly Cloudy
Fog And Mist
48°F / 9°C 48°F / 9°C 100% 30.09 in
(1019 mb)
Calm - 1 1/4SM
04:33
Obscured
Fog
50°F / 10°C 48°F / 9°C 94% 30.09 in
(1019 mb)
Calm - 1/2SM
04:25
Obscured
Fog And Mist
46°F / 8°C 46°F / 8°C 100% 30.09 in
(1019 mb)
Calm - 1SM
04:23
Partly Cloudy
Fog And Mist
48°F / 9°C 48°F / 9°C 100% 30.09 in
(1019 mb)
Calm - 1 1/2SM
04:21
Obscured
Fog And Mist
48°F / 9°C 48°F / 9°C 100% 30.09 in
(1019 mb)
Calm - 1SM
04:17
Obscured
Fog
50°F / 10°C 48°F / 9°C 94% 30.09 in
(1019 mb)
Calm - 1/2SM
04:10
Clear
Fog And Mist
52°F / 11°C 50°F / 10°C 94% 30.09 in
(1019 mb)
Calm - 1SM
04:07
Clear
Fog And Mist
52°F / 11°C 50°F / 10°C 94% 30.09 in
(1019 mb)
Calm - 2SM
04:04
Clear
Fog And Mist
50°F / 10°C 48°F / 9°C 94% 30.09 in
(1019 mb)
Calm - 1SM
03:54
Obscured
Fog And Mist
48°F / 9°C 48°F / 9°C 100% 30.09 in
(1019 mb)
Calm - 3/4SM
03:46
Obscured
Fog And Mist
50°F / 10°C 48°F / 9°C 94% 30.09 in
(1019 mb)
Calm - 3/4SM
03:38
Obscured
Fog And Mist
50°F / 10°C 48°F / 9°C 94% 30.09 in
(1019 mb)
Calm - 1SM
03:36
Partly Cloudy
Fog And Mist
50°F / 10°C 48°F / 9°C 94% 30.09 in
(1019 mb)
Calm - 1 3/4SM
03:34
Partly Cloudy
Fog And Mist
48°F / 9°C 48°F / 9°C 100% 30.09 in
(1019 mb)
Calm - 3SM
03:20
Clear
Fog And Mist
50°F / 10°C 48°F / 9°C 94% 30.09 in
(1019 mb)
Calm - 4SM
03:07
Partly Cloudy
Fog And Mist
52°F / 11°C 50°F / 10°C 94% 30.09 in
(1019 mb)
Calm - 1 3/4SM
03:00
Partly Cloudy
Fog And Mist
50°F / 10°C 50°F / 10°C 100% 30.09 in
(1019 mb)
Calm - 1 1/4SM
02:54
Obscured
Fog
52°F / 11°C 52°F / 11°C 100% 30.09 in
(1019 mb)
Calm - 1/2SM
02:50
Obscured
Fog
52°F / 11°C 50°F / 10°C 94% 30.09 in
(1019 mb)
Calm - 1/4SM
02:37
Obscured
Fog
50°F / 10°C 48°F / 9°C 94% 30.09 in
(1019 mb)
Calm - 1/2SM
02:30
Clear
Fog And Mist
50°F / 10°C 48°F / 9°C 94% 30.09 in
(1019 mb)
Calm - 3/4SM
02:28
Clear
Fog And Mist
50°F / 10°C 48°F / 9°C 94% 30.09 in
(1019 mb)
Calm - 1 1/2SM
02:17
Clear
52°F / 11°C 50°F / 10°C 94% 30.09 in
(1019 mb)
Calm - 10SM
02:09
Clear
Fog And Mist
52°F / 11°C 52°F / 11°C 100% 30.09 in
(1019 mb)
Calm - 2SM
02:00
Clear
Fog And Mist
52°F / 11°C 52°F / 11°C 100% 30.09 in
(1019 mb)
Calm - 1 1/4SM
01:54
Clear
Fog And Mist
54°F / 12°C 52°F / 11°C 94% 30.09 in
(1019 mb)
NE 3.5 mph
(NE 6 kph)
- 2 1/2SM
01:50
Clear
Fog And Mist
54°F / 12°C 52°F / 11°C 94% 30.09 in
(1019 mb)
Calm - 1 3/4SM
01:42
Clear
Fog And Mist
52°F / 11°C 52°F / 11°C 100% 30.09 in
(1019 mb)
Calm - 6SM
01:35
Partly Cloudy
Fog And Mist
54°F / 12°C 52°F / 11°C 94% 30.09 in
(1019 mb)
Calm - 2SM
01:33
Partly Cloudy
Fog And Mist
54°F / 12°C 52°F / 11°C 94% 30.09 in
(1019 mb)
Calm - 1 1/4SM
01:07
Obscured
Fog
52°F / 11°C 50°F / 10°C 94% 30.09 in
(1019 mb)
Calm - 1/2SM
01:02
Clear
Fog And Mist
52°F / 11°C 52°F / 11°C 100% 30.09 in
(1019 mb)
Calm - 1 1/4SM
00:54
Clear
52°F / 11°C 50°F / 10°C 94% 30.09 in
(1019 mb)
Calm - 7SM
00:49
Clear
Fog And Mist
52°F / 11°C 52°F / 11°C 100% 30.09 in
(1019 mb)
Calm - 4SM
00:47
Clear
Fog And Mist
54°F / 12°C 52°F / 11°C 94% 30.09 in
(1019 mb)
Calm - 1 1/2SM
00:36
Clear
Fog
54°F / 12°C 54°F / 12°C 100% 30.09 in
(1019 mb)
Calm - 1/2SM
00:28
Clear
Fog And Mist
52°F / 11°C 52°F / 11°C 100% 30.09 in
(1019 mb)
Calm - 1 1/4SM
Time Weather Temperature Dewpoint Humidity Pressure Winds Precip Visibility


Weather for websites

WeatherForYou.com, LLC is not responsible for any damages or problems caused by this service. Current weather conditions are obtained from the closest station including government and personal stations which may have varying degrees of accuracy. Weather forecasts are derived from the NOAA NDFD. Like all things, this site belongs to Jesus Christ... He just trusts me to maintain it. If you have any questions or comments email webmaster@weatherforyou.com

Copyright © 2014, WeatherForYou.com LLC. All rights reserved.